Year,Month,Day,Hour,Minute,Value (Times are PST for temperature in C)
2019,08,03,00,00,15.30
2019,08,03,00,01,15.30
2019,08,03,00,02,15.30
2019,08,03,00,03,15.30
2019,08,03,00,04,15.20
2019,08,03,00,05,15.20
2019,08,03,00,06,15.20
2019,08,03,00,07,15.20
2019,08,03,00,08,15.20
2019,08,03,00,09,15.20
2019,08,03,00,10,15.20
2019,08,03,00,11,15.10
2019,08,03,00,12,15.10
2019,08,03,00,13,15.10
2019,08,03,00,14,15.10
2019,08,03,00,15,15.10
2019,08,03,00,16,15.10
2019,08,03,00,17,15.00
2019,08,03,00,18,15.00
2019,08,03,00,19,15.00
2019,08,03,00,20,15.00
2019,08,03,00,21,15.00
2019,08,03,00,22,15.00
2019,08,03,00,23,15.00
2019,08,03,00,24,15.00
2019,08,03,00,25,15.00
2019,08,03,00,26,15.00
2019,08,03,00,27,15.00
2019,08,03,00,28,14.90
2019,08,03,00,29,14.90
2019,08,03,00,30,14.90
2019,08,03,00,31,14.90
2019,08,03,00,32,14.90
2019,08,03,00,33,14.90
2019,08,03,00,34,14.90
2019,08,03,00,35,14.80
2019,08,03,00,36,14.80
2019,08,03,00,37,14.80
2019,08,03,00,38,14.80
2019,08,03,00,39,14.80
2019,08,03,00,40,14.80
2019,08,03,00,41,14.80
2019,08,03,00,42,14.80
2019,08,03,00,43,14.80
2019,08,03,00,44,14.80
2019,08,03,00,45,14.80
2019,08,03,00,46,14.80
2019,08,03,00,47,14.80
2019,08,03,00,48,14.80
2019,08,03,00,49,14.80
2019,08,03,00,50,14.80
2019,08,03,00,51,14.80
2019,08,03,00,52,14.80
2019,08,03,00,53,14.70
2019,08,03,00,54,14.70
2019,08,03,00,55,14.70
2019,08,03,00,56,14.70
2019,08,03,00,57,14.70
2019,08,03,00,58,14.70
2019,08,03,00,59,14.70
2019,08,03,01,00,14.70
2019,08,03,01,01,14.70
2019,08,03,01,02,14.70
2019,08,03,01,03,14.70
2019,08,03,01,04,14.70
2019,08,03,01,05,14.70
2019,08,03,01,06,14.70
2019,08,03,01,07,14.70
2019,08,03,01,08,14.70
2019,08,03,01,09,14.70
2019,08,03,01,10,14.70
2019,08,03,01,11,14.70
2019,08,03,01,12,14.70
2019,08,03,01,13,14.70
2019,08,03,01,14,14.70
2019,08,03,01,15,14.70
2019,08,03,01,16,14.70
2019,08,03,01,17,14.60
2019,08,03,01,18,14.60
2019,08,03,01,19,14.60
2019,08,03,01,20,14.60
2019,08,03,01,21,14.60
2019,08,03,01,22,14.60
2019,08,03,01,23,14.60
2019,08,03,01,24,14.60
2019,08,03,01,25,14.60
2019,08,03,01,26,14.60
2019,08,03,01,27,14.60
2019,08,03,01,28,14.60
2019,08,03,01,29,14.60
2019,08,03,01,30,14.60
2019,08,03,01,31,14.50
2019,08,03,01,32,14.50
2019,08,03,01,33,14.50
2019,08,03,01,34,14.50
2019,08,03,01,35,14.50
2019,08,03,01,36,14.50
2019,08,03,01,37,14.50
2019,08,03,01,38,14.40
2019,08,03,01,39,14.40
2019,08,03,01,40,14.40
2019,08,03,01,41,14.40
2019,08,03,01,42,14.40
2019,08,03,01,43,14.40
2019,08,03,01,44,14.40
2019,08,03,01,45,14.40
2019,08,03,01,46,14.40
2019,08,03,01,47,14.40
2019,08,03,01,48,14.30
2019,08,03,01,49,14.30
2019,08,03,01,50,14.30
2019,08,03,01,51,14.30
2019,08,03,01,52,14.30
2019,08,03,01,53,14.30
2019,08,03,01,54,14.30
2019,08,03,01,55,14.30
2019,08,03,01,56,14.30
2019,08,03,01,57,14.30
2019,08,03,01,58,14.30
2019,08,03,01,59,14.30
2019,08,03,02,00,14.20
2019,08,03,02,01,14.20
2019,08,03,02,02,14.20
2019,08,03,02,03,14.20
2019,08,03,02,04,14.20
2019,08,03,02,05,14.20
2019,08,03,02,06,14.20
2019,08,03,02,07,14.10
2019,08,03,02,08,14.10
2019,08,03,02,09,14.10
2019,08,03,02,10,14.10
2019,08,03,02,11,14.00
2019,08,03,02,12,14.00
2019,08,03,02,13,13.90
2019,08,03,02,14,13.90
2019,08,03,02,15,13.90
2019,08,03,02,16,13.90
2019,08,03,02,17,13.90
2019,08,03,02,18,13.80
2019,08,03,02,19,13.80
2019,08,03,02,20,13.80
2019,08,03,02,21,13.80
2019,08,03,02,22,13.80
2019,08,03,02,23,13.80
2019,08,03,02,24,13.80
2019,08,03,02,25,13.80
2019,08,03,02,26,13.80
2019,08,03,02,27,13.80
2019,08,03,02,28,13.80
2019,08,03,02,29,13.70
2019,08,03,02,30,13.70
2019,08,03,02,31,13.70
2019,08,03,02,32,13.70
2019,08,03,02,33,13.70
2019,08,03,02,34,13.70
2019,08,03,02,35,13.70
2019,08,03,02,36,13.70
2019,08,03,02,37,13.70
2019,08,03,02,38,13.60
2019,08,03,02,39,13.60
2019,08,03,02,40,13.60
2019,08,03,02,41,13.60
2019,08,03,02,42,13.50
2019,08,03,02,43,13.50
2019,08,03,02,44,13.50
2019,08,03,02,45,13.50
2019,08,03,02,46,13.50
2019,08,03,02,47,13.50
2019,08,03,02,48,13.40
2019,08,03,02,49,13.40
2019,08,03,02,50,13.40
2019,08,03,02,51,13.40
2019,08,03,02,52,13.40
2019,08,03,02,53,13.30
2019,08,03,02,54,13.30
2019,08,03,02,55,13.30
2019,08,03,02,56,13.30
2019,08,03,02,57,13.30
2019,08,03,02,58,13.30
2019,08,03,02,59,13.30
2019,08,03,03,00,13.20
2019,08,03,03,01,13.20
2019,08,03,03,02,13.20
2019,08,03,03,03,13.20
2019,08,03,03,04,13.20
2019,08,03,03,05,13.20
2019,08,03,03,06,13.10
2019,08,03,03,07,13.10
2019,08,03,03,08,13.10
2019,08,03,03,09,13.10
2019,08,03,03,10,13.10
2019,08,03,03,11,13.10
2019,08,03,03,12,13.10
2019,08,03,03,13,13.00
2019,08,03,03,14,13.00
2019,08,03,03,15,13.00
2019,08,03,03,16,13.10
2019,08,03,03,17,13.10
2019,08,03,03,18,13.10
2019,08,03,03,19,13.10
2019,08,03,03,20,13.00
2019,08,03,03,21,13.00
2019,08,03,03,22,13.00
2019,08,03,03,23,13.00
2019,08,03,03,24,13.00
2019,08,03,03,25,13.00
2019,08,03,03,26,13.00
2019,08,03,03,27,13.00
2019,08,03,03,28,13.00
2019,08,03,03,29,13.00
2019,08,03,03,30,13.00
2019,08,03,03,31,13.00
2019,08,03,03,32,13.00
2019,08,03,03,33,13.00
2019,08,03,03,34,13.00
2019,08,03,03,35,13.00
2019,08,03,03,36,13.00
2019,08,03,03,37,12.90
2019,08,03,03,38,12.90
2019,08,03,03,39,12.90
2019,08,03,03,40,12.90
2019,08,03,03,41,12.90
2019,08,03,03,42,12.90
2019,08,03,03,43,12.90
2019,08,03,03,44,12.90
2019,08,03,03,45,12.90
2019,08,03,03,46,12.90
2019,08,03,03,47,12.90
2019,08,03,03,48,12.90
2019,08,03,03,49,12.90
2019,08,03,03,50,12.90
2019,08,03,03,51,12.90
2019,08,03,03,52,12.90
2019,08,03,03,53,12.90
2019,08,03,03,54,12.90
2019,08,03,03,55,12.90
2019,08,03,03,56,12.90
2019,08,03,03,57,12.90
2019,08,03,03,58,12.90
2019,08,03,03,59,13.00
2019,08,03,04,00,13.00
2019,08,03,04,01,13.00
2019,08,03,04,02,13.10
2019,08,03,04,03,13.10
2019,08,03,04,04,13.10
2019,08,03,04,05,13.10
2019,08,03,04,06,13.20
2019,08,03,04,07,13.20
2019,08,03,04,08,13.20
2019,08,03,04,09,13.20
2019,08,03,04,10,13.20
2019,08,03,04,11,13.20
2019,08,03,04,12,13.20
2019,08,03,04,13,13.20
2019,08,03,04,14,13.20
2019,08,03,04,15,13.20
2019,08,03,04,16,13.20
2019,08,03,04,17,13.20
2019,08,03,04,18,13.20
2019,08,03,04,19,13.20
2019,08,03,04,20,13.20
2019,08,03,04,21,13.20
2019,08,03,04,22,13.20
2019,08,03,04,23,13.20
2019,08,03,04,24,13.20
2019,08,03,04,25,13.20
2019,08,03,04,26,13.20
2019,08,03,04,27,13.20
2019,08,03,04,28,13.20
2019,08,03,04,29,13.30
2019,08,03,04,30,13.30
2019,08,03,04,31,13.30
2019,08,03,04,32,13.30
2019,08,03,04,33,13.30
2019,08,03,04,34,13.30
2019,08,03,04,35,13.30
2019,08,03,04,36,13.30
2019,08,03,04,37,13.30
2019,08,03,04,38,13.30
2019,08,03,04,39,13.30
2019,08,03,04,40,13.30
2019,08,03,04,41,13.30
2019,08,03,04,42,13.30
2019,08,03,04,43,13.30
2019,08,03,04,44,13.30
2019,08,03,04,45,13.30
2019,08,03,04,46,13.30
2019,08,03,04,47,13.30
2019,08,03,04,48,13.20
2019,08,03,04,49,13.20
2019,08,03,04,50,13.20
2019,08,03,04,51,13.20
2019,08,03,04,52,13.20
2019,08,03,04,53,13.20
2019,08,03,04,54,13.20
2019,08,03,04,55,13.20
2019,08,03,04,56,13.20
2019,08,03,04,57,13.20
2019,08,03,04,58,13.20
2019,08,03,04,59,13.20
2019,08,03,05,00,13.20
2019,08,03,05,01,13.20
2019,08,03,05,02,13.20
2019,08,03,05,03,13.20
2019,08,03,05,04,13.20
2019,08,03,05,05,13.20
2019,08,03,05,06,13.20
2019,08,03,05,07,13.20
2019,08,03,05,08,13.20
2019,08,03,05,09,13.20
2019,08,03,05,10,13.20
2019,08,03,05,11,13.20
2019,08,03,05,12,13.30
2019,08,03,05,13,13.30
2019,08,03,05,14,13.30
2019,08,03,05,15,13.30
2019,08,03,05,16,13.30
2019,08,03,05,17,13.30
2019,08,03,05,18,13.30
2019,08,03,05,19,13.30
2019,08,03,05,20,13.30
2019,08,03,05,21,13.40
2019,08,03,05,22,13.40
2019,08,03,05,23,13.40
2019,08,03,05,24,13.40
2019,08,03,05,25,13.40
2019,08,03,05,26,13.40
2019,08,03,05,27,13.40
2019,08,03,05,28,13.40
2019,08,03,05,29,13.40
2019,08,03,05,30,13.40
2019,08,03,05,31,13.40
2019,08,03,05,32,13.40
2019,08,03,05,33,13.40
2019,08,03,05,34,13.40
2019,08,03,05,35,13.40
2019,08,03,05,36,13.30
2019,08,03,05,37,13.30
2019,08,03,05,38,13.30
2019,08,03,05,39,13.30
2019,08,03,05,40,13.30
2019,08,03,05,41,13.30
2019,08,03,05,42,13.30
2019,08,03,05,43,13.30
2019,08,03,05,44,13.30
2019,08,03,05,45,13.30
2019,08,03,05,46,13.20
2019,08,03,05,47,13.20
2019,08,03,05,48,13.20
2019,08,03,05,49,13.20
2019,08,03,05,50,13.20
2019,08,03,05,51,13.20
2019,08,03,05,52,13.20
2019,08,03,05,53,13.20
2019,08,03,05,54,13.20
2019,08,03,05,55,13.30
2019,08,03,05,56,13.30
2019,08,03,05,57,13.30
2019,08,03,05,58,13.30
2019,08,03,05,59,13.30
2019,08,03,06,00,13.30
2019,08,03,06,01,13.30
2019,08,03,06,02,13.30
2019,08,03,06,03,13.30
2019,08,03,06,04,13.30
2019,08,03,06,05,13.30
2019,08,03,06,06,13.30
2019,08,03,06,07,13.30
2019,08,03,06,08,13.30
2019,08,03,06,09,13.30
2019,08,03,06,10,13.30
2019,08,03,06,11,13.30
2019,08,03,06,12,13.30
2019,08,03,06,13,13.30
2019,08,03,06,14,13.30
2019,08,03,06,15,13.30
2019,08,03,06,16,13.30
2019,08,03,06,17,13.30
2019,08,03,06,18,13.30
2019,08,03,06,19,13.30
2019,08,03,06,20,13.30
2019,08,03,06,21,13.20
2019,08,03,06,22,13.20
2019,08,03,06,23,13.20
2019,08,03,06,24,13.20
2019,08,03,06,25,13.20
2019,08,03,06,26,13.20
2019,08,03,06,27,13.20
2019,08,03,06,28,13.20
2019,08,03,06,29,13.20
2019,08,03,06,30,13.10
2019,08,03,06,31,13.10
2019,08,03,06,32,13.10
2019,08,03,06,33,13.10
2019,08,03,06,34,13.10
2019,08,03,06,35,13.10
2019,08,03,06,36,13.10
2019,08,03,06,37,13.10
2019,08,03,06,38,13.10
2019,08,03,06,39,13.10
2019,08,03,06,40,13.10
2019,08,03,06,41,13.10
2019,08,03,06,42,13.10
2019,08,03,06,43,13.10
2019,08,03,06,44,13.10
2019,08,03,06,45,13.10
2019,08,03,06,46,13.10
2019,08,03,06,47,13.10
2019,08,03,06,48,13.10
2019,08,03,06,49,13.10
2019,08,03,06,50,13.10
2019,08,03,06,51,13.10
2019,08,03,06,52,13.10
2019,08,03,06,53,13.10
2019,08,03,06,54,13.10
2019,08,03,06,55,13.10
2019,08,03,06,56,13.10
2019,08,03,06,57,13.10
2019,08,03,06,58,13.10
2019,08,03,06,59,13.10
2019,08,03,07,00,13.10
2019,08,03,07,01,13.10
2019,08,03,07,02,13.10
2019,08,03,07,03,13.10
2019,08,03,07,04,13.10
2019,08,03,07,05,13.10
2019,08,03,07,06,13.10
2019,08,03,07,07,13.10
2019,08,03,07,08,13.10
2019,08,03,07,09,13.10
2019,08,03,07,10,13.20
2019,08,03,07,11,13.20
2019,08,03,07,12,13.20
2019,08,03,07,13,13.20
2019,08,03,07,14,13.20
2019,08,03,07,15,13.20
2019,08,03,07,16,13.20
2019,08,03,07,17,13.20
2019,08,03,07,18,13.20
2019,08,03,07,19,13.30
2019,08,03,07,20,13.30
2019,08,03,07,21,13.30
2019,08,03,07,22,13.30
2019,08,03,07,23,13.30
2019,08,03,07,24,13.30
2019,08,03,07,25,13.30
2019,08,03,07,26,13.40
2019,08,03,07,27,13.40
2019,08,03,07,28,13.40
2019,08,03,07,29,13.40
2019,08,03,07,30,13.40
2019,08,03,07,31,13.40
2019,08,03,07,32,13.50
2019,08,03,07,33,13.50
2019,08,03,07,34,13.50
2019,08,03,07,35,13.60
2019,08,03,07,36,13.60
2019,08,03,07,37,13.60
2019,08,03,07,38,13.60
2019,08,03,07,39,13.60
2019,08,03,07,40,13.60
2019,08,03,07,41,13.60
2019,08,03,07,42,13.70
2019,08,03,07,43,13.70
2019,08,03,07,44,13.70
2019,08,03,07,45,13.70
2019,08,03,07,46,13.70
2019,08,03,07,47,13.70
2019,08,03,07,48,13.70
2019,08,03,07,49,13.70
2019,08,03,07,50,13.70
2019,08,03,07,51,13.70
2019,08,03,07,52,13.70
2019,08,03,07,53,13.70
2019,08,03,07,54,13.70
2019,08,03,07,55,13.70
2019,08,03,07,56,13.80
2019,08,03,07,57,13.80
2019,08,03,07,58,13.80
2019,08,03,07,59,13.80
2019,08,03,08,00,13.80
2019,08,03,08,01,13.80
2019,08,03,08,02,13.90
2019,08,03,08,03,13.90
2019,08,03,08,04,13.90
2019,08,03,08,05,13.90
2019,08,03,08,06,13.90
2019,08,03,08,07,13.90
2019,08,03,08,08,13.90
2019,08,03,08,09,13.90
2019,08,03,08,10,13.90
2019,08,03,08,11,13.90
2019,08,03,08,12,14.00
2019,08,03,08,13,14.00
2019,08,03,08,14,14.00
2019,08,03,08,15,14.10
2019,08,03,08,16,14.10
2019,08,03,08,17,14.10
2019,08,03,08,18,14.10
2019,08,03,08,19,14.10
2019,08,03,08,20,14.10
2019,08,03,08,21,14.10
2019,08,03,08,22,14.10
2019,08,03,08,23,14.10
2019,08,03,08,24,14.20
2019,08,03,08,25,14.20
2019,08,03,08,26,14.20
2019,08,03,08,27,14.20
2019,08,03,08,28,14.30
2019,08,03,08,29,14.30
2019,08,03,08,30,14.30
2019,08,03,08,31,14.30
2019,08,03,08,32,14.30
2019,08,03,08,33,14.30
2019,08,03,08,34,14.30
2019,08,03,08,35,14.30
2019,08,03,08,36,14.40
2019,08,03,08,37,14.40
2019,08,03,08,38,14.40
2019,08,03,08,39,14.40
2019,08,03,08,40,14.40
2019,08,03,08,41,14.40
2019,08,03,08,42,14.40
2019,08,03,08,43,14.40
2019,08,03,08,44,14.40
2019,08,03,08,45,14.40
2019,08,03,08,46,14.40
2019,08,03,08,47,14.50
2019,08,03,08,48,14.50
2019,08,03,08,49,14.50
2019,08,03,08,50,14.60
2019,08,03,08,51,14.60
2019,08,03,08,52,14.60
2019,08,03,08,53,14.60
2019,08,03,08,54,14.60
2019,08,03,08,55,14.60
2019,08,03,08,56,14.60
2019,08,03,08,57,14.60
2019,08,03,08,58,14.60
2019,08,03,08,59,14.60
2019,08,03,09,00,14.60
2019,08,03,09,01,14.60
2019,08,03,09,02,14.60
2019,08,03,09,03,14.60
2019,08,03,09,04,14.60
2019,08,03,09,05,14.60
2019,08,03,09,06,14.60
2019,08,03,09,07,14.60
2019,08,03,09,08,14.70
2019,08,03,09,09,14.70
2019,08,03,09,10,14.70
2019,08,03,09,11,14.70
2019,08,03,09,12,14.70
2019,08,03,09,13,14.70
2019,08,03,09,14,14.80
2019,08,03,09,15,14.80
2019,08,03,09,16,14.80
2019,08,03,09,17,14.80
2019,08,03,09,18,14.80
2019,08,03,09,19,14.90
2019,08,03,09,20,14.90
2019,08,03,09,21,14.90
2019,08,03,09,22,15.00
2019,08,03,09,23,15.00
2019,08,03,09,24,15.00
2019,08,03,09,25,15.00
2019,08,03,09,26,15.00
2019,08,03,09,27,15.00
2019,08,03,09,28,15.00
2019,08,03,09,29,15.10
2019,08,03,09,30,15.10
2019,08,03,09,31,15.10
2019,08,03,09,32,15.10
2019,08,03,09,33,15.10
2019,08,03,09,34,15.20
2019,08,03,09,35,15.20
2019,08,03,09,36,15.30
2019,08,03,09,37,15.30
2019,08,03,09,38,15.40
2019,08,03,09,39,15.40
2019,08,03,09,40,15.50
2019,08,03,09,41,15.60
2019,08,03,09,42,15.60
2019,08,03,09,43,15.70
2019,08,03,09,44,15.70
2019,08,03,09,45,15.70
2019,08,03,09,46,15.70
2019,08,03,09,47,15.60
2019,08,03,09,48,15.60
2019,08,03,09,49,15.70
2019,08,03,09,50,15.70
2019,08,03,09,51,15.70
2019,08,03,09,52,15.70
2019,08,03,09,53,15.80
2019,08,03,09,54,15.90
2019,08,03,09,55,16.00
2019,08,03,09,56,16.00
2019,08,03,09,57,16.10
2019,08,03,09,58,16.20
2019,08,03,09,59,16.20
2019,08,03,10,00,16.20
2019,08,03,10,01,16.20
2019,08,03,10,02,16.20
2019,08,03,10,03,16.20
2019,08,03,10,04,16.20
2019,08,03,10,05,16.20
2019,08,03,10,06,16.20
2019,08,03,10,07,16.30
2019,08,03,10,08,16.30
2019,08,03,10,09,16.40
2019,08,03,10,10,16.40
2019,08,03,10,11,16.50
2019,08,03,10,12,16.60
2019,08,03,10,13,16.70
2019,08,03,10,14,16.80
2019,08,03,10,15,16.80
2019,08,03,10,16,16.80
2019,08,03,10,17,16.80
2019,08,03,10,18,16.90
2019,08,03,10,19,16.90
2019,08,03,10,20,16.90
2019,08,03,10,21,16.90
2019,08,03,10,22,16.90
2019,08,03,10,23,17.00
2019,08,03,10,24,17.00
2019,08,03,10,25,17.10
2019,08,03,10,26,17.10
2019,08,03,10,27,17.10
2019,08,03,10,28,17.10
2019,08,03,10,29,17.20
2019,08,03,10,30,17.30
2019,08,03,10,31,17.30
2019,08,03,10,32,17.40
2019,08,03,10,33,17.50
2019,08,03,10,34,17.60
2019,08,03,10,35,17.70
2019,08,03,10,36,17.80
2019,08,03,10,37,17.90
2019,08,03,10,38,18.00
2019,08,03,10,39,18.10
2019,08,03,10,40,18.20
2019,08,03,10,41,18.30
2019,08,03,10,42,18.40
2019,08,03,10,43,18.50
2019,08,03,10,44,18.60
2019,08,03,10,45,18.70
2019,08,03,10,46,18.80
2019,08,03,10,47,18.90
2019,08,03,10,48,19.00
2019,08,03,10,49,19.20
2019,08,03,10,50,19.30
2019,08,03,10,51,19.30
2019,08,03,10,52,19.40
2019,08,03,10,53,19.40
2019,08,03,10,54,19.40
2019,08,03,10,55,19.40
2019,08,03,10,56,19.40
2019,08,03,10,57,19.50
2019,08,03,10,58,19.50
2019,08,03,10,59,19.60
2019,08,03,11,00,19.60
2019,08,03,11,01,19.60
2019,08,03,11,02,19.70
2019,08,03,11,03,19.70
2019,08,03,11,04,19.70
2019,08,03,11,05,19.70
2019,08,03,11,06,19.70
2019,08,03,11,07,19.80
2019,08,03,11,08,19.80
2019,08,03,11,09,19.80
2019,08,03,11,10,19.80
2019,08,03,11,11,19.80
2019,08,03,11,12,19.80
2019,08,03,11,13,19.80
2019,08,03,11,14,19.90
2019,08,03,11,15,20.00
2019,08,03,11,16,20.00
2019,08,03,11,17,20.00
2019,08,03,11,18,20.00
2019,08,03,11,19,20.00
2019,08,03,11,20,20.10
2019,08,03,11,21,20.10
2019,08,03,11,22,20.10
2019,08,03,11,23,20.20
2019,08,03,11,24,20.20
2019,08,03,11,25,20.20
2019,08,03,11,26,20.30
2019,08,03,11,27,20.40
2019,08,03,11,28,20.50
2019,08,03,11,29,20.60
2019,08,03,11,30,20.70
2019,08,03,11,31,20.70
2019,08,03,11,32,20.70
2019,08,03,11,33,20.70
2019,08,03,11,34,20.70
2019,08,03,11,35,20.80
2019,08,03,11,36,20.80
2019,08,03,11,37,20.80
2019,08,03,11,38,20.90
2019,08,03,11,39,20.90
2019,08,03,11,40,21.00
2019,08,03,11,41,21.00
2019,08,03,11,42,21.00
2019,08,03,11,43,21.10
2019,08,03,11,44,21.10
2019,08,03,11,45,21.20
2019,08,03,11,46,21.20
2019,08,03,11,47,21.20
2019,08,03,11,48,21.30
2019,08,03,11,49,21.30
2019,08,03,11,50,21.40
2019,08,03,11,51,21.50
2019,08,03,11,52,21.60
2019,08,03,11,53,21.60
2019,08,03,11,54,21.60
2019,08,03,11,55,21.70
2019,08,03,11,56,21.70
2019,08,03,11,57,21.80
2019,08,03,11,58,21.90
2019,08,03,11,59,22.00
2019,08,03,12,00,22.10
2019,08,03,12,01,22.20
2019,08,03,12,02,22.20
2019,08,03,12,03,22.20
2019,08,03,12,04,22.30
2019,08,03,12,05,22.30
2019,08,03,12,06,22.30
2019,08,03,12,07,22.40
2019,08,03,12,08,22.30
2019,08,03,12,09,22.30
2019,08,03,12,10,22.40
2019,08,03,12,11,22.40
2019,08,03,12,12,22.50
2019,08,03,12,13,22.50
2019,08,03,12,14,22.60
2019,08,03,12,15,22.60
2019,08,03,12,16,22.60
2019,08,03,12,17,22.60
2019,08,03,12,18,22.60
2019,08,03,12,19,22.70
2019,08,03,12,20,22.70
2019,08,03,12,21,22.80
2019,08,03,12,22,22.80
2019,08,03,12,23,22.90
2019,08,03,12,24,23.00
2019,08,03,12,25,23.10
2019,08,03,12,26,23.10
2019,08,03,12,27,23.10
2019,08,03,12,28,23.10
2019,08,03,12,29,23.10
2019,08,03,12,30,23.20
2019,08,03,12,31,23.20
2019,08,03,12,32,23.30
2019,08,03,12,33,23.30
2019,08,03,12,34,23.30
2019,08,03,12,35,23.40
2019,08,03,12,36,23.40
2019,08,03,12,37,23.40
2019,08,03,12,38,23.40
2019,08,03,12,39,23.50
2019,08,03,12,40,23.60
2019,08,03,12,41,23.60
2019,08,03,12,42,23.70
2019,08,03,12,43,23.80
2019,08,03,12,44,23.80
2019,08,03,12,45,23.90
2019,08,03,12,46,24.00
2019,08,03,12,47,24.00
2019,08,03,12,48,24.00
2019,08,03,12,49,23.90
2019,08,03,12,50,24.00
2019,08,03,12,51,23.90
2019,08,03,12,52,23.90
2019,08,03,12,53,24.00
2019,08,03,12,54,24.00
2019,08,03,12,55,24.10
2019,08,03,12,56,24.20
2019,08,03,12,57,24.30
2019,08,03,12,58,24.40
2019,08,03,12,59,24.50
2019,08,03,13,00,24.60
2019,08,03,13,01,24.60
2019,08,03,13,02,24.50
2019,08,03,13,03,24.50
2019,08,03,13,04,24.50
2019,08,03,13,05,24.60
2019,08,03,13,06,24.50
2019,08,03,13,07,24.50
2019,08,03,13,08,24.50
2019,08,03,13,09,24.50
2019,08,03,13,10,24.50
2019,08,03,13,11,24.60
2019,08,03,13,12,24.70
2019,08,03,13,13,24.70
2019,08,03,13,14,24.70
2019,08,03,13,15,24.70
2019,08,03,13,16,24.70
2019,08,03,13,17,24.80
2019,08,03,13,18,24.90
2019,08,03,13,19,24.90
2019,08,03,13,20,25.00
2019,08,03,13,21,25.00
2019,08,03,13,22,25.10
2019,08,03,13,23,25.10
2019,08,03,13,24,25.10
2019,08,03,13,25,25.10
2019,08,03,13,26,25.00
2019,08,03,13,27,24.90
2019,08,03,13,28,24.80
2019,08,03,13,29,24.70
2019,08,03,13,30,24.60
2019,08,03,13,31,24.60
2019,08,03,13,32,24.60
2019,08,03,13,33,24.60
2019,08,03,13,34,24.70
2019,08,03,13,35,24.70
2019,08,03,13,36,24.70
2019,08,03,13,37,24.70
2019,08,03,13,38,24.70
2019,08,03,13,39,24.70
2019,08,03,13,40,24.80
2019,08,03,13,41,24.80
2019,08,03,13,42,24.90
2019,08,03,13,43,24.90
2019,08,03,13,44,24.90
2019,08,03,13,45,24.80
2019,08,03,13,46,24.80
2019,08,03,13,47,24.80
2019,08,03,13,48,24.80
2019,08,03,13,49,24.90
2019,08,03,13,50,25.00
2019,08,03,13,51,25.00
2019,08,03,13,52,25.00
2019,08,03,13,53,25.10
2019,08,03,13,54,25.10
2019,08,03,13,55,25.20
2019,08,03,13,56,25.20
2019,08,03,13,57,25.30
2019,08,03,13,58,25.30
2019,08,03,13,59,25.30
2019,08,03,14,00,25.40
2019,08,03,14,01,25.50
2019,08,03,14,02,25.50
2019,08,03,14,03,25.40
2019,08,03,14,04,25.40
2019,08,03,14,05,25.40
2019,08,03,14,06,25.40
2019,08,03,14,07,25.40
2019,08,03,14,08,25.40
2019,08,03,14,09,25.40
2019,08,03,14,10,25.40
2019,08,03,14,11,25.40
2019,08,03,14,12,25.40
2019,08,03,14,13,25.30
2019,08,03,14,14,25.30
2019,08,03,14,15,25.20
2019,08,03,14,16,25.30
2019,08,03,14,17,25.30
2019,08,03,14,18,25.40
2019,08,03,14,19,25.40
2019,08,03,14,20,25.40
2019,08,03,14,21,25.40
2019,08,03,14,22,25.30
2019,08,03,14,23,25.40
2019,08,03,14,24,25.40
2019,08,03,14,25,25.40
2019,08,03,14,26,25.40
2019,08,03,14,27,25.40
2019,08,03,14,28,25.40
2019,08,03,14,29,25.40
2019,08,03,14,30,25.40
2019,08,03,14,31,25.40
2019,08,03,14,32,25.50
2019,08,03,14,33,25.70
2019,08,03,14,34,25.70
2019,08,03,14,35,25.70
2019,08,03,14,36,25.80
2019,08,03,14,37,25.80
2019,08,03,14,38,25.80
2019,08,03,14,39,25.80
2019,08,03,14,40,25.80
2019,08,03,14,41,25.80
2019,08,03,14,42,25.80
2019,08,03,14,43,25.90
2019,08,03,14,44,26.00
2019,08,03,14,45,26.10
2019,08,03,14,46,26.10
2019,08,03,14,47,26.10
2019,08,03,14,48,26.10
2019,08,03,14,49,26.10
2019,08,03,14,50,26.10
2019,08,03,14,51,26.00
2019,08,03,14,52,26.00
2019,08,03,14,53,26.00
2019,08,03,14,54,26.00
2019,08,03,14,55,26.10
2019,08,03,14,56,26.10
2019,08,03,14,57,26.10
2019,08,03,14,58,26.20
2019,08,03,14,59,26.20
2019,08,03,15,00,26.30
2019,08,03,15,01,26.20
2019,08,03,15,02,26.20
2019,08,03,15,03,26.20
2019,08,03,15,04,26.20
2019,08,03,15,05,26.20
2019,08,03,15,06,26.10
2019,08,03,15,07,26.10
2019,08,03,15,08,26.10
2019,08,03,15,09,26.10
2019,08,03,15,10,26.10
2019,08,03,15,11,26.10
2019,08,03,15,12,26.00
2019,08,03,15,13,26.00
2019,08,03,15,14,25.90
2019,08,03,15,15,25.90
2019,08,03,15,16,25.90
2019,08,03,15,17,26.00
2019,08,03,15,18,26.10
2019,08,03,15,19,26.10
2019,08,03,15,20,26.20
2019,08,03,15,21,26.20
2019,08,03,15,22,26.20
2019,08,03,15,23,26.20
2019,08,03,15,24,26.20
2019,08,03,15,25,26.20
2019,08,03,15,26,26.30
2019,08,03,15,27,26.40
2019,08,03,15,28,26.40
2019,08,03,15,29,26.50
2019,08,03,15,30,26.50
2019,08,03,15,31,26.40
2019,08,03,15,32,26.30
2019,08,03,15,33,26.30
2019,08,03,15,34,26.30
2019,08,03,15,35,26.30
2019,08,03,15,36,26.30
2019,08,03,15,37,26.40
2019,08,03,15,38,26.40
2019,08,03,15,39,26.40
2019,08,03,15,40,26.40
2019,08,03,15,41,26.40
2019,08,03,15,42,26.40
2019,08,03,15,43,26.40
2019,08,03,15,44,26.50
2019,08,03,15,45,26.60
2019,08,03,15,46,26.60
2019,08,03,15,47,26.60
2019,08,03,15,48,26.70
2019,08,03,15,49,26.70
2019,08,03,15,50,26.70
2019,08,03,15,51,26.70
2019,08,03,15,52,26.70
2019,08,03,15,53,26.70
2019,08,03,15,54,26.70
2019,08,03,15,55,26.70
2019,08,03,15,56,26.70
2019,08,03,15,57,26.70
2019,08,03,15,58,26.70
2019,08,03,15,59,26.70
2019,08,03,16,00,26.70
2019,08,03,16,01,26.70
2019,08,03,16,02,26.70
2019,08,03,16,03,26.70
2019,08,03,16,04,26.80
2019,08,03,16,05,26.70
2019,08,03,16,06,26.60
2019,08,03,16,07,26.60
2019,08,03,16,08,26.50
2019,08,03,16,09,26.40
2019,08,03,16,10,26.40
2019,08,03,16,11,26.40
2019,08,03,16,12,26.40
2019,08,03,16,13,26.40
2019,08,03,16,14,26.50
2019,08,03,16,15,26.60
2019,08,03,16,16,26.60
2019,08,03,16,17,26.70
2019,08,03,16,18,26.70
2019,08,03,16,19,26.60
2019,08,03,16,20,26.60
2019,08,03,16,21,26.70
2019,08,03,16,22,26.70
2019,08,03,16,23,26.80
2019,08,03,16,24,26.80
2019,08,03,16,25,26.80
2019,08,03,16,26,26.80
2019,08,03,16,27,26.90
2019,08,03,16,28,26.80
2019,08,03,16,29,26.80
2019,08,03,16,30,26.80
2019,08,03,16,31,26.80
2019,08,03,16,32,26.70
2019,08,03,16,33,26.70
2019,08,03,16,34,26.80
2019,08,03,16,35,26.80
2019,08,03,16,36,26.90
2019,08,03,16,37,26.90
2019,08,03,16,38,26.90
2019,08,03,16,39,26.90
2019,08,03,16,40,26.80
2019,08,03,16,41,26.90
2019,08,03,16,42,26.90
2019,08,03,16,43,26.90
2019,08,03,16,44,27.00
2019,08,03,16,45,26.90
2019,08,03,16,46,26.90
2019,08,03,16,47,26.80
2019,08,03,16,48,26.80
2019,08,03,16,49,26.70
2019,08,03,16,50,26.70
2019,08,03,16,51,26.60
2019,08,03,16,52,26.60
2019,08,03,16,53,26.60
2019,08,03,16,54,26.60
2019,08,03,16,55,26.60
2019,08,03,16,56,26.60
2019,08,03,16,57,26.60
2019,08,03,16,58,26.60
2019,08,03,16,59,26.50
2019,08,03,17,00,26.50
2019,08,03,17,01,26.50
2019,08,03,17,02,26.50
2019,08,03,17,03,26.50
2019,08,03,17,04,26.50
2019,08,03,17,05,26.50
2019,08,03,17,06,26.50
2019,08,03,17,07,26.60
2019,08,03,17,08,26.60
2019,08,03,17,09,26.70
2019,08,03,17,10,26.70
2019,08,03,17,11,26.70
2019,08,03,17,12,26.70
2019,08,03,17,13,26.80
2019,08,03,17,14,26.80
2019,08,03,17,15,26.70
2019,08,03,17,16,26.70
2019,08,03,17,17,26.70
2019,08,03,17,18,26.80
2019,08,03,17,19,26.70